This demonstration page uses our WeatherBlox Daily Observations layout. Learn more.

Left ArrowRight Arrow

34.16533, -84.80231

Hourly Observations for November 30, 2020

Temp ( °F °C ) Dew Point ( °F °C ) Humidity (%) Winds ( mph kmh ) Pressure ( in mb ) Visibility ( mi km ) Precip ( " mm )
12:53 am 00:53 Cloudy with Light Rain 56 13.3 53 11.7 90 90 VRB 5 7 29.61 1003 8 13 0.02 0.51
1:53 am 01:53 Cloudy with Rain 56 13.3 53 11.7 90 90 VRB 3 6 29.60 1003 5 8 0.05 1.27
2:05 am 02:05 Cloudy with Light Rain 55 12.8 53 11.7 93 93 WSW 3 6 29.64 1004 5 8 0.00 0.00
2:32 am 02:32 Cloudy 56 13.3 53 11.7 90 90 Calm 29.63 1003 7 11 0.01 0.25
2:51 am 02:51 Cloudy with Light Rain 55 13 54 12 94 94 Calm 29.62 1003 3 5 0.02 0.51
2:53 am 02:53 Cloudy with Light Rain 55 12.8 53 11.7 93 93 Calm 29.60 1002 4 6 0.02 0.51
3:10 am 03:10 Cloudy with Mist and Fog 56 13.3 53 11.7 90 90 S 3 6 29.62 1003 5 8 0.00 0.00
3:23 am 03:23 Cloudy with Light Rain 56 13.3 53 11.7 90 90 undefined N/A 29.63 1003 2 3 0.01 0.25
3:31 am 03:31 Cloudy with Light Rain 52 11.1 49 9.4 89 89 VRB 5 7 29.65 1004 3 5 0.01 0.25
3:53 am 03:53 Cloudy with Mist and Fog 50 10 47 8.3 89 89 VRB 6 9 29.64 1004 6 10 0.02 0.51
4:53 am 04:53 Cloudy 48 8.9 45 7.2 89 89 VRB 5 7 29.68 1005 10 16 0.00 0.00
5:01 am 05:01 Cloudy 48 8.9 44 6.7 86 86 VRB 5 7 29.72 1007 10 16 0.00 0.00
5:20 am 05:20 Cloudy 48 8.9 45 7.2 89 89 VRB 3 6 29.73 1007 10 16 0.00 0.00
5:53 am 05:53 Cloudy 47 8.3 42 5.6 83 83 W 7 11 29.72 1007 10 16 0.00 0.00
6:19 am 06:19 Cloudy 46 7.8 40 4.4 79 79 VRB 3 6 29.78 1008 10 16 0.00 0.00
6:53 am 06:53 Cloudy 46 7.8 40 4.4 79 79 VRB 5 7 29.76 1008 10 16 0.00 0.00
7:53 am 07:53 Cloudy 44 6.7 37 2.8 76 76 VRB 3 6 29.80 1009 10 16 0.00 0.00
8:53 am 08:53 Cloudy 44 6.7 36 2.2 73 73 VRB 3 6 29.84 1010 10 16 0.00 0.00
9:53 am 09:53 Cloudy 44 6.7 35 1.7 71 71 VRB 5 7 29.86 1011 10 16 0.00 0.00
10:53 am 10:53 Cloudy 45 7.2 36 2.2 71 71 Calm 29.86 1011 10 16 0.00 0.00
11:53 am 11:53 Cloudy 45 7.2 36 2.2 71 71 VRB 5 7 29.85 1011 10 16 0.00 0.00
12:53 pm 12:53 Cloudy 44 6.7 37 2.8 76 76 VRB 3 6 29.84 1010 10 16 0.00 0.00
1:19 pm 13:19 Cloudy with Light Rain 43 6.1 38 3.3 82 82 VRB 5 7 29.87 1012 8 13 0.00 0.00
1:53 pm 13:53 Cloudy with Light Rain 41 5 38 3.3 89 89 VRB 5 7 29.84 1011 6 10 0.01 0.25
2:07 pm 14:07 Cloudy with Light Rain 41 5 37 2.8 86 86 VRB 3 6 29.88 1012 7 11 0.00 0.00
2:53 pm 14:53 Cloudy 40 4.4 35 1.7 83 83 VRB 6 9 29.85 1011 10 16 0.00 0.00
3:03 pm 15:03 Cloudy 40 4.4 34 1.1 79 79 VRB 3 6 29.90 1012 10 16 0.00 0.00
3:53 pm 15:53 Cloudy 39 3.9 32 0 76 76 VRB 3 6 29.88 1012 10 16 0.00 0.00
4:53 pm 16:53 Cloudy with Light Rain 39 3.9 32 0 76 76 VRB 3 6 29.89 1012 8 13 0.00 0.00
5:12 pm 17:12 Cloudy 39 3.9 32 0 76 76 VRB 3 6 29.93 1013 10 16 0.00 0.00
5:46 pm 17:46 Cloudy 38 3.3 31 -0.6 76 76 VRB 5 7 29.94 1014 10 16 0.00 0.00
5:53 pm 17:53 Cloudy with Light Snow 38 3.3 31 -0.6 76 76 Calm 29.91 1013 10 16 0.01 0.25
6:45 pm 18:45 Cloudy 37 2.8 30 -1.1 76 76 VRB 6 9 29.97 1015 9 14 0.00 0.00
6:53 pm 18:53 Cloudy with Light Snow 37 2.8 30 -1.1 76 76 VRB 5 7 29.93 1014 9 14 0.00 0.00
7:32 pm 19:32 Cloudy 37 2.8 29 -1.7 73 73 VRB 3 6 29.99 1016 10 16 0.00 0.00
7:53 pm 19:53 Cloudy 37 2.8 28 -2.2 70 70 VRB 3 6 29.96 1015 10 16 0.00 0.00
8:53 pm 20:53 Cloudy 37 2.8 27 -2.8 67 67 VRB 3 6 29.98 1015 10 16 0.00 0.00
9:53 pm 21:53 Cloudy 36 2.2 25 -3.9 64 64 VRB 5 7 30.00 1016 10 16 0.00 0.00
10:53 pm 22:53 Cloudy with Light Snow 35 1.7 26 -3.3 70 70 VRB 3 6 30.02 1017 9 14 0.00 0.00
11:25 pm 23:25 Cloudy 35 1.7 26 -3.3 70 70 undefined N/A 30.06 1018 10 16 0.00 0.00
11:53 pm 23:53 Cloudy 35 1.7 27 -2.8 72 72 Calm 30.03 1017 10 16 0.00 0.00

Powered by AerisWeather